Regional Weather Roundup
Issued by NWS

Home | Current Version | Previous Version | Text Only | Print | Product List | Glossary On
Versions: 1 2 3 4 5 6 7 8 9 10 11 12 13 14 15 16 17 18 19 20 21 22 23 24 25 26 27 28 29 30 31 32 33 34 35 36 37 38 39 40 41 42 43 44 45 46 47 48 49 50
000
ASUS43 KBIS 272301
RWRND

NORTH DAKOTA REGIONAL WEATHER ROUNDUP
NATIONAL WEATHER SERVICE BISMARCK ND
600 PM CDT MON APR 27 2015

NOTE: "FAIR" INDICATES FEW OR NO CLOUDS BELOW 12,000 FEET WITH NO
SIGNIFICANT WEATHER AND/OR OBSTRUCTIONS TO VISIBILITY.


NDZ001>003-009>011-017-280000-
NORTHWEST NORTH DAKOTA

CITY           SKY/WX    TMP DP  RH WIND       PRES   REMARKS
WILLISTON      MOSUNNY   59  37  44 W8        30.27F
MINOT          PTSUNNY   53  39  59 W8        30.26F
MINOT AFB      MOSUNNY   54  46  76 VRB2      30.25F
$$

NDZ018>021-031>035-040>046-280000-
SOUTHWEST NORTH DAKOTA

CITY           SKY/WX    TMP DP  RH WIND       PRES   REMARKS
BISMARCK       CLOUDY    50  41  71 NW13      30.30R
DICKINSON      CLOUDY    47  38  71 NW9       30.29S
GARRISON         N/A     50  42  74 NW10      30.29S
HETTINGER ARPT CLOUDY    47  37  68 NW10      30.31S
$$

NDZ004>008-012>016-024-026-027-054-280000-
NORTHEAST NORTH DAKOTA

CITY           SKY/WX    TMP DP  RH WIND       PRES   REMARKS
GRAND FORKS    PTSUNNY   61  42  49 N20       30.18R
GRND FRKS AFB  PTSUNNY   61  42  49 N16       30.19R
DEVILS LAKE    CLOUDY    48  43  81 NW9       30.25S
$$

NDZ022-023-025-028>030-036>039-047>053-280000-
SOUTHEAST NORTH DAKOTA

CITY           SKY/WX    TMP DP  RH WIND       PRES   REMARKS
FARGO          MOSUNNY   72  24  16 NW7       30.12F
JAMESTOWN      CLOUDY    61  41  47 N18G26    30.20R
$$




USA.gov is the U.S. government's official web portal to all federal, state and local government web resources and services.